Weather in Artyshta

Russia / Kemerovo Oblast     54°10′42″N   86°16′43″E
temp.,
°C
wind,
m/s
gust,
m/s
humid.,
%
clouds,
%
prec.,
mm/h
press.,
hPa
HPBL,
m
23 october, sat
sat2301:00+3sw612645 0.0 1026775
04:00+2ssw61364100 0.0 1027822
07:00+2ssw61359100 0.0 1028878
10:00+3ssw918535 0.0 10261516
13:00+6sw9184632 0.0 10241616
16:00+6sw91847100 0.0 10231465
19:00+6sw112150100 0.0 10211317
22:00+3sw102388100 2.0 10211254
24 october, sun
sun2401:00+4sw102190100 2.8 10201137
04:00+4sw101882100 0.3 10201012
07:00+4sw101887100 0.4 1021947
10:00+4sw101979100 0.2 1021960
13:00+6sw91768100 0.3 1021969
16:00+7sw8156995 0.0 1022875
19:00+6sw81670100 0.1 1023696
22:00+6sw71571100 0.1 1024545
25 october, mon
mon2501:00+6sw61378100 0.1 1024411
04:00+6ssw51079100 0.0 1023329
07:00+6ssw51270100 0.0 1022410
10:00+7ssw61365100 0.0 1021561
13:00+10ssw71558100 0.0 1019859
16:00+10sw71556100 0.0 1018859
19:00+9sw71557100 0.0 1018679
22:00+8sw61363100 0.0 1020456
26 october, tue
tue2601:00+6sw4970100 0.0 1021217
04:00+4ssw227689 0.0 102125
07:00+4s347849 0.0 102154
10:00+6sse387078 0.0 1019220
13:00+10s4751100 0.0 1016403
16:00+10sse3756100 0.0 1013328
19:00+8s51464100 0.0 1011336
22:00+9sw71549100 0.0 1011502
27 october, wed
wed2701:00+9sw61346100 0.0 1011377
04:00+8sw61350100 0.0 1013424
07:00+5w4866100 0.0 1017280
10:00+1nnw5896100 0.1 1022455
13:00+1nw3569100 0.9 1024636
16:00+2nnw334891 0.1 1025863
19:000n226096 0.1 102818
22:00−1nne116391 0.0 102910